Location: Armidale
(30.5016°S, 151.6662°E)
Time: 02:32:02
(UTC+10:00)

Hubble Space Telescope - Pass Details

Date: 10 August 2020
Orbit: 536 x 540 km, 28.5° (Epoch: 28 September)

Event Time Altitude Azimuth Distance (km) Brightness Sun altitude
Rises 18:14:06 0° 274° (W) 2,684 6.4 -11.0°
Reaches altitude 10° 18:16:23 10° 276° (W) 1,792 5.0 -11.5°
Maximum altitude 18:20:30 67° 359° (N) 585 1.0 -12.3°
Enters shadow 18:23:27 18° 78° (ENE) 1,347 2.2 -13.0°
